Weather History for KCGC - January, 2013

Change the Weather History Date:

Friday, January 11, 2013

  Actual Average (KGNV) Record (KGNV)
Temperature  
Mean Temperature 70 °F 54 °F  
Max Temperature 82 °F 66 °F 84 °F (1901)
Min Temperature 59 °F 42 °F 17 °F (2010)
Degree Days  
Heating Degree Days 0 12  
Month to date heating degree days 129  
Since 1 July heating degree days 586  
Cooling Degree Days 6 0  
Month to date cooling degree days 0  
Year to date cooling degree days 0  
Growing Degree Days 20 (Base 50)    
Moisture  
Dew Point 61 °F    
Average Humidity 81    
Maximum Humidity 100    
Minimum Humidity 45    
Precipitation  
Precipitation 0.00 in 0.10 in 1.70 in (1991)
Month to date precipitation 0.99  
Year to date precipitation 0.99  
Snow  
Snow 0.00 in 0.00 in 0.00 in ()
Month to date snowfall 0.0  
Since 1 July snowfall 0.0  
Snow Depth -    
Sea Level Pressure  
Sea Level Pressure 30.21 in    
Wind  
Wind Speed 2 mph (SSE)    
Max Wind Speed 10 mph    
Max Gust Speed -    
Visibility 9 miles    
Events      
T = Trace of Precipitation, MM = Missing Value Source: NWS Daily Summary

Daily Weather History Graph

Daily Weather History Graph

Search for Another Location

Airport or City:

Trip Planner

Search our weather history database for the weather conditions in past years. The results will help you decide how hot, cold, wet, or windy it might be!

Date:

Astronomy

Jan. 11, 2013 Rise Set
Actual Time 7:24 AM EST 5:52 PM EST
Civil Twilight 6:59 AM EST 6:17 PM EST
Nautical Twilight 6:30 AM EST 6:46 PM EST
Astronomical Twilight 6:01 AM EST 7:15 PM EST
Moon 7:00 AM EST (1/11) 6:03 PM EST (1/11)
Length of Visible Light 11h 18m
Length of Day
10h 27m
Waning Crescent, 0% of the Moon is Illuminated
Jan 11
Waning Crescent
Jan 11
New
Jan 18
First Quarter
Jan 26
Full
Feb 3
Last Quarter

Hourly Weather History & Observations

Time (EST) Temp. Heat Index Dew Point Humidity Pressure Visibility Wind Dir Wind Speed Gust Speed Precip Events Conditions
12:15 AM 66.2 °F - 62.6 °F 88% 30.27 in 10.0 mi East 3.5 mph - N/A   Mostly Cloudy
12:55 AM 64.4 °F - 62.6 °F 94% 30.27 in 10.0 mi Calm Calm - N/A   Clear
1:15 AM 62.6 °F - 60.8 °F 94% 30.26 in 10.0 mi Calm Calm - N/A   Clear
1:35 AM 64.4 °F - 62.6 °F 94% 30.27 in 10.0 mi Calm Calm - N/A   Mostly Cloudy
1:55 AM 62.6 °F - 62.6 °F 100% 30.26 in 10.0 mi Calm Calm - N/A   Overcast
2:15 AM 64.4 °F - 62.6 °F 94% 30.26 in 10.0 mi Calm Calm - N/A   Overcast
2:35 AM 62.6 °F - 62.6 °F 100% 30.26 in 10.0 mi Calm Calm - N/A   Overcast
2:55 AM 62.6 °F - 62.6 °F 100% 30.25 in 10.0 mi Calm Calm - N/A   Overcast
3:15 AM 62.6 °F - 62.6 °F 100% 30.25 in 10.0 mi Calm Calm - N/A   Overcast
3:35 AM 62.6 °F - 62.6 °F 100% 30.25 in 10.0 mi Calm Calm - N/A   Overcast
3:55 AM 62.6 °F - 62.6 °F 100% 30.24 in 10.0 mi Calm Calm - N/A   Overcast
4:15 AM 62.6 °F - 60.8 °F 94% 30.23 in 10.0 mi Calm Calm - N/A   Scattered Clouds
4:35 AM 62.6 °F - 62.6 °F 100% 30.22 in 10.0 mi Calm Calm - N/A   Clear
4:55 AM 62.6 °F - 62.6 °F 100% 30.22 in 10.0 mi Calm Calm - N/A   Clear
5:15 AM 62.6 °F - 62.6 °F 100% 30.22 in 10.0 mi Calm Calm - N/A   Clear
5:35 AM 60.8 °F - 60.8 °F 100% 30.22 in 7.0 mi Calm Calm - N/A   Clear
5:55 AM 60.8 °F - 60.8 °F 100% 30.22 in 7.0 mi Calm Calm - N/A   Clear
6:15 AM 60.8 °F - 60.8 °F 100% 30.22 in 2.5 mi Calm Calm - N/A   Clear
6:35 AM 60.8 °F - 60.8 °F 100% 30.22 in 4.0 mi Calm Calm - N/A   Clear
6:55 AM 59.0 °F - 59.0 °F 100% 30.23 in 5.0 mi Calm Calm - N/A   Scattered Clouds
7:15 AM 59.0 °F - 59.0 °F 100% 30.23 in 5.0 mi Calm Calm - N/A   Scattered Clouds
7:55 AM 60.8 °F - 60.8 °F 100% 30.23 in 4.0 mi ESE 3.5 mph - N/A   Clear
8:15 AM 62.6 °F - 62.6 °F 100% 30.24 in 7.0 mi SE 3.5 mph - N/A   Clear
8:35 AM 64.4 °F - 64.4 °F 100% 30.23 in 10.0 mi Calm Calm - N/A   Clear
8:55 AM 68.0 °F - 64.4 °F 88% 30.24 in 10.0 mi SE 5.8 mph - N/A   Clear
9:15 AM 69.8 °F - 62.6 °F 78% 30.24 in 10.0 mi SE 4.6 mph - N/A   Clear
9:35 AM 71.6 °F - 62.6 °F 73% 30.25 in 10.0 mi SE 3.5 mph - N/A   Clear
9:55 AM 73.4 °F - 62.6 °F 69% 30.25 in 10.0 mi SE 3.5 mph - N/A   Clear
10:35 AM 77.0 °F - 62.6 °F 61% 30.24 in 10.0 mi SE 5.8 mph - N/A   Clear
10:55 AM 78.8 °F - 60.8 °F 54% 30.24 in 10.0 mi SSE 6.9 mph - N/A   Clear
11:15 AM 80.6 °F 81.1 °F 59.0 °F 48% 30.23 in 10.0 mi SSE 10.4 mph - N/A   Clear
11:35 AM 80.6 °F 81.1 °F 59.0 °F 48% 30.22 in 10.0 mi SE 9.2 mph - N/A   Clear
11:55 AM 80.6 °F 80.8 °F 57.2 °F 45% 30.21 in 10.0 mi SE 10.4 mph - N/A   Clear
12:15 PM 80.6 °F 81.1 °F 59.0 °F 48% 30.20 in 10.0 mi South 8.1 mph - N/A   Clear
12:55 PM 82.4 °F 82.5 °F 59.0 °F 45% 30.19 in 10.0 mi South 4.6 mph - N/A   Clear
1:15 PM 82.4 °F 82.5 °F 59.0 °F 45% 30.18 in 10.0 mi SE 6.9 mph - N/A   Clear
1:35 PM 82.4 °F 82.5 °F 59.0 °F 45% 30.17 in 10.0 mi South 5.8 mph - N/A   Clear
1:55 PM 82.4 °F 82.5 °F 59.0 °F 45% 30.17 in 10.0 mi South 6.9 mph - N/A   Scattered Clouds
2:15 PM 82.4 °F 82.5 °F 59.0 °F 45% 30.16 in 10.0 mi SE 6.9 mph - N/A   Clear
3:15 PM 80.6 °F 81.1 °F 59.0 °F 48% 30.16 in 10.0 mi South 3.5 mph - N/A   Mostly Cloudy
3:35 PM 82.4 °F 82.5 °F 59.0 °F 45% 30.16 in 10.0 mi SE 3.5 mph - N/A   Scattered Clouds
3:55 PM 82.4 °F 82.5 °F 59.0 °F 45% 30.16 in 10.0 mi WSW 5.8 mph - N/A   Clear
4:15 PM 77.0 °F - 62.6 °F 61% 30.16 in 10.0 mi West 5.8 mph - N/A   Scattered Clouds
4:35 PM 77.0 °F - 62.6 °F 61% 30.16 in 10.0 mi WNW 3.5 mph - N/A   Mostly Cloudy
4:55 PM 77.0 °F - 62.6 °F 61% 30.17 in 10.0 mi NW 4.6 mph - N/A   Mostly Cloudy
5:15 PM 73.4 °F - 62.6 °F 69% 30.17 in 10.0 mi WNW 3.5 mph - N/A   Mostly Cloudy
5:35 PM 73.4 °F - 62.6 °F 69% 30.16 in 10.0 mi Calm Calm - N/A   Scattered Clouds
5:55 PM 71.6 °F - 62.6 °F 73% 30.16 in 10.0 mi Calm Calm - N/A   Scattered Clouds
6:15 PM 69.8 °F - 62.6 °F 78% 30.17 in 10.0 mi Calm Calm - N/A   Clear
6:35 PM 68.0 °F - 62.6 °F 83% 30.17 in 2.0 mi Calm Calm - N/A   Haze
6:55 PM 66.2 °F - 60.8 °F 83% 30.17 in 10.0 mi Calm Calm - N/A   Clear
7:15 PM 64.4 °F - 60.8 °F 88% 30.17 in 10.0 mi Calm Calm - N/A   Clear
7:35 PM 64.4 °F - 60.8 °F 88% 30.17 in 10.0 mi Calm Calm - N/A   Clear
7:55 PM 64.4 °F - 60.8 °F 88% 30.18 in 10.0 mi Calm Calm - N/A   Scattered Clouds
8:15 PM 64.4 °F - 60.8 °F 88% 30.18 in 10.0 mi Calm Calm - N/A   Mostly Cloudy
8:35 PM 64.4 °F - 60.8 °F 88% 30.18 in 10.0 mi Calm Calm - N/A   Scattered Clouds
8:55 PM 62.6 °F - 60.8 °F 94% 30.19 in 10.0 mi Calm Calm - N/A   Scattered Clouds
9:15 PM 62.6 °F - 59.0 °F 88% 30.18 in 10.0 mi Calm Calm - N/A   Scattered Clouds
9:35 PM 60.8 °F - 60.8 °F 100% 30.19 in 10.0 mi Calm Calm - N/A   Clear
9:55 PM 60.8 °F - 59.0 °F 94% 30.19 in 10.0 mi Calm Calm - N/A   Scattered Clouds
10:15 PM 60.8 °F - 60.8 °F 100% 30.19 in 10.0 mi Calm Calm - N/A   Mostly Cloudy
10:35 PM 62.6 °F - 60.8 °F 94% 30.19 in 10.0 mi Calm Calm - N/A   Overcast
10:55 PM 60.8 °F - 60.8 °F 100% 30.20 in 10.0 mi Calm Calm - N/A   Mostly Cloudy
11:15 PM 60.8 °F - 60.8 °F 100% 30.21 in 10.0 mi Calm Calm - N/A   Overcast
11:35 PM 62.6 °F - 60.8 °F 94% 30.20 in 10.0 mi Calm Calm - N/A   Overcast
11:55 PM 62.6 °F - 60.8 °F 94% 30.20 in 10.0 mi Calm Calm - N/A   Overcast